Fort Myers, FL

1:15 AM EDT on May 24, 2017 (GMT -0400)
Page

Weather History for KFMY - June, 2013

Change the Weather History Date:

Thursday, June 6, 2013

  Actual Average Record
Temperature  
Mean Temperature 77 °F 82 °F  
Max Temperature 82 °F 91 °F 98 °F (1945)
Min Temperature 71 °F 73 °F 62 °F (1955)
Degree Days  
Heating Degree Days 0 0  
Month to date heating degree days 0 0  
Since 1 June heating degree days 0 0  
Since 1 July heating degree days 201 287  
Cooling Degree Days 12 17  
Month to date cooling degree days 85 102  
Year to date cooling degree days 1223 1168  
Since 1 June cooling degree days 85 102  
Growing Degree Days 26 (Base 50)    
Moisture  
Dew Point 73 °F    
Average Humidity 91    
Maximum Humidity 94    
Minimum Humidity 74    
Precipitation  
Precipitation 1.78 in 0.28 in 4.21 in (1912)
Month to date precipitation 2.14 1.46  
Year to date precipitation 12.30 13.26  
Sea Level Pressure  
Sea Level Pressure 29.81 in    
Wind  
Wind Speed 11 mph (South)    
Max Wind Speed 25 mph    
Max Gust Speed 32 mph    
Visibility 7 miles    
Events Rain    
T = Trace of Precipitation, MM = Missing Value Source: NWS Daily Summary

Daily Weather History Graph

Daily Weather History Graph

Search for Another Location

Airport or City:

Trip Planner

Search our weather history database for the weather conditions in past years. The results will help you decide how hot, cold, wet, or windy it might be!

Date:

Astronomy

Jun. 06, 2013 Rise Set
Actual Time 6:33 AM EDT 8:18 PM EDT
Civil Twilight 6:07 AM EDT 8:44 PM EDT
Nautical Twilight 5:36 AM EDT 9:16 PM EDT
Astronomical Twilight 5:03 AM EDT 9:49 PM EDT
Moon 5:05 AM EDT (6/6) 6:46 PM EDT (6/6)
Length of Visible Light 14h 37m
Length of Day
13h 45m
Waning Crescent, 4% of the Moon is Illuminated
Jun 6
Waning Crescent
Jun 8
New
Jun 16
First Quarter
Jun 23
Full
Jun 30
Last Quarter

Hourly Weather History & Observations

Time (EDT) Temp. Heat Index Dew Point Humidity Pressure Visibility Wind Dir Wind Speed Gust Speed Precip Events Conditions
12:00 AM 75.2 °F - 73.4 °F 94% 29.86 in 9.0 mi East 11.5 mph 19.6 mph 0.01 in Rain Light Rain
12:26 AM 75.2 °F - 73.4 °F 94% 29.88 in 8.0 mi East 5.8 mph - 0.03 in Rain Light Rain
12:36 AM 75.2 °F - 73.4 °F 94% 29.87 in 7.0 mi East 8.1 mph - 0.04 in Rain Light Rain
12:53 AM 75.0 °F - 73.9 °F 96% 29.85 in 5.0 mi East 12.7 mph - 0.12 in Rain Rain
1:05 AM 75.2 °F - 73.4 °F 94% 29.85 in 6.0 mi ESE 6.9 mph - 0.02 in Rain Light Rain
1:22 AM 75.2 °F - 73.4 °F 94% 29.85 in 3.0 mi ESE 9.2 mph - 0.07 in Rain Heavy Rain
1:50 AM 75.2 °F - 73.4 °F 94% 29.85 in 1.8 mi ESE 6.9 mph 16.1 mph 0.25 in Rain Heavy Rain
1:53 AM 75.0 °F - 73.9 °F 96% 29.85 in 1.8 mi ESE 9.2 mph - 0.29 in Rain Heavy Rain
2:19 AM 75.2 °F - 73.4 °F 94% 29.82 in 1.8 mi East 11.5 mph - 0.48 in Rain Heavy Rain
2:31 AM 75.2 °F - 73.4 °F 94% 29.78 in 3.0 mi East 20.7 mph 26.5 mph 0.66 in Rain Light Rain
2:39 AM 75.2 °F - 75.2 °F 100% 29.82 in 10.0 mi South 10.4 mph 26.5 mph 0.66 in Rain Light Rain
2:53 AM 75.9 °F - 73.9 °F 94% 29.83 in 6.0 mi SSE 16.1 mph 24.2 mph 0.67 in Rain Light Rain
3:04 AM 75.2 °F - 73.4 °F 94% 29.82 in 5.0 mi SSE 12.7 mph - 0.04 in Rain Rain
3:19 AM 75.2 °F - 73.4 °F 94% 29.82 in 2.0 mi SE 10.4 mph 18.4 mph 0.14 in Rain Heavy Rain
3:26 AM 75.2 °F - 73.4 °F 94% 29.81 in 3.0 mi SE 12.7 mph 19.6 mph 0.20 in Rain Rain
3:53 AM 75.0 °F - 73.0 °F 94% 29.82 in 10.0 mi SSE 9.2 mph - 0.23 in Rain Light Rain
4:53 AM 73.9 °F - 73.0 °F 97% 29.81 in 10.0 mi SE 8.1 mph - 0.01 in   Overcast
4:59 AM 73.4 °F - 73.4 °F 100% 29.80 in 10.0 mi SE 10.4 mph - N/A   Overcast
5:11 AM 73.4 °F - 73.4 °F 100% 29.79 in 10.0 mi SE 11.5 mph - 0.00 in Rain Light Rain
5:33 AM 73.4 °F - 71.6 °F 94% 29.78 in 10.0 mi SSE 9.2 mph - 0.00 in   Mostly Cloudy
5:53 AM 73.9 °F - 72.0 °F 93% 29.78 in 10.0 mi SE 8.1 mph - 0.00 in   Clear
6:53 AM 73.9 °F - 72.0 °F 93% 29.77 in 10.0 mi North - - N/A   Scattered Clouds
7:53 AM 75.0 °F - 72.0 °F 90% 29.80 in 10.0 mi SSE 17.3 mph - N/A   Partly Cloudy
8:53 AM 75.0 °F - 73.0 °F 94% 29.81 in 10.0 mi SSE 9.2 mph - N/A   Mostly Cloudy
9:51 AM 77.0 °F - 73.4 °F 89% 29.81 in 10.0 mi SE 10.4 mph - N/A   Overcast
9:53 AM 77.0 °F - 73.9 °F 90% 29.82 in 10.0 mi SE 8.1 mph - 0.00 in Rain Light Rain
10:53 AM 78.1 °F - 75.9 °F 93% 29.81 in 6.0 mi SSE 8.1 mph - 0.01 in Rain Light Rain
11:15 AM 78.8 °F - 75.2 °F 89% 29.78 in 4.0 mi South 9.2 mph - 0.00 in Rain Light Rain
11:27 AM 80.6 °F 87.1 °F 77.0 °F 89% 29.78 in 2.5 mi South 12.7 mph 20.7 mph 0.04 in Rain Light Rain
11:36 AM 80.6 °F 87.1 °F 77.0 °F 89% 29.79 in 6.0 mi South 13.8 mph 21.9 mph 0.08 in Rain Light Rain
11:53 AM 81.0 °F 87.9 °F 77.0 °F 88% 29.80 in 9.0 mi South 16.1 mph 24.2 mph 0.09 in   Overcast
12:00 PM 80.6 °F 88.1 °F 78.8 °F 94% 29.80 in 8.0 mi South 17.3 mph 26.5 mph N/A   Overcast
12:53 PM 81.0 °F 87.9 °F 77.0 °F 88% 29.79 in 7.0 mi SSW 15.0 mph 28.8 mph 0.00 in Rain Light Rain
1:53 PM 73.0 °F - 69.1 °F 87% 29.82 in 10.0 mi West 11.5 mph 23.0 mph 0.00 in   Overcast
2:00 PM 73.4 °F - 69.8 °F 88% 29.82 in 10.0 mi West 19.6 mph 25.3 mph N/A   Overcast
2:09 PM 73.4 °F - 69.8 °F 88% 29.79 in 1.8 mi West 19.6 mph 26.5 mph 0.03 in Rain Rain
2:18 PM 71.6 °F - 69.8 °F 94% 29.81 in 4.0 mi SW 11.5 mph - 0.09 in Rain Light Rain
2:22 PM 71.6 °F - 69.8 °F 94% 29.81 in 1.5 mi WSW 13.8 mph - 0.09 in Rain Light Rain
2:24 PM 71.6 °F - 69.8 °F 94% 29.81 in 0.8 mi SW 15.0 mph 21.9 mph 0.12 in Rain Heavy Rain
2:34 PM 71.6 °F - 69.8 °F 94% 29.79 in 1.0 mi SW 6.9 mph 20.7 mph 0.36 in Rain Rain
2:39 PM 71.6 °F - 69.8 °F 94% 29.79 in 3.0 mi SW 8.1 mph - 0.38 in Rain Light Rain
2:53 PM 72.0 °F - 70.0 °F 93% 29.80 in 5.0 mi SW 5.8 mph - 0.40 in Rain Light Rain
3:53 PM 73.9 °F - 71.1 °F 91% 29.78 in 10.0 mi SW 11.5 mph 21.9 mph 0.08 in Rain Light Rain
4:20 PM 73.4 °F - 69.8 °F 88% 29.76 in 9.0 mi SW 16.1 mph 25.3 mph 0.01 in Rain Light Rain
4:27 PM 73.4 °F - 69.8 °F 88% 29.76 in 10.0 mi SSW 12.7 mph 25.3 mph 0.01 in Rain Light Rain
4:43 PM 75.2 °F - 69.8 °F 83% 29.76 in 10.0 mi SW 17.3 mph 26.5 mph 0.01 in   Mostly Cloudy
4:53 PM 75.0 °F - 70.0 °F 84% 29.77 in 10.0 mi SSW 13.8 mph 31.1 mph 0.01 in   Mostly Cloudy
5:11 PM 75.2 °F - 69.8 °F 83% 29.76 in 10.0 mi SSW 19.6 mph 28.8 mph N/A   Overcast
5:53 PM 77.0 °F - 70.0 °F 79% 29.77 in 10.0 mi SW 10.4 mph 25.3 mph N/A   Clear
6:53 PM 77.0 °F - 71.1 °F 82% 29.77 in 10.0 mi SW 15.0 mph 23.0 mph N/A   Scattered Clouds
7:53 PM 77.0 °F - 70.0 °F 79% 29.78 in 10.0 mi SW 6.9 mph - N/A   Clear
8:53 PM 78.1 °F - 70.0 °F 76% 29.81 in 10.0 mi SSW 12.7 mph - N/A   Partly Cloudy
9:18 PM 77.0 °F - 71.6 °F 83% 29.81 in 10.0 mi SSW 10.4 mph - N/A   Mostly Cloudy
9:27 PM 77.0 °F - 71.6 °F 83% 29.81 in 10.0 mi SSW 9.2 mph 17.3 mph N/A   Mostly Cloudy
9:40 PM 78.8 °F - 73.4 °F 83% 29.81 in 10.0 mi SSW 9.2 mph - N/A   Mostly Cloudy
9:53 PM 78.1 °F - 73.0 °F 84% 29.83 in 10.0 mi SSW 8.1 mph - N/A   Overcast
10:53 PM 78.1 °F - 73.9 °F 87% 29.84 in 10.0 mi SW 10.4 mph - N/A   Mostly Cloudy
11:53 PM 77.0 °F - 73.9 °F 90% 29.84 in 10.0 mi WSW 8.1 mph - 0.00 in   Overcast